Погода в Бибиково

Россия / Орловская область     53°10′49″N   37°13′46″E
В апреле 2022 года жителям России запретили посещать сайт meteo.paraplan.net по решению Генеральной прокуратуры. Аудитория сайта уменьшилась в 10 раз. Владельцы сайта не видят смысла в поддержке погодного сервера в таких условиях. Сайт будет закрыт в октябре.
темп.,
°C
ветер,
м/с
пор.,
м/с
влажн.,
%
обл.,
%
осадки,
мм/ч
давл.,
гПа
погр.,
м
5 октября, ср
ср500:00+7ююз379099 0.2 1012915
03:00+7ююз4893100 1.2 10121098
06:00+6юз6991100 1.4 10131075
09:00+7юз5992100 1.9 1014600
12:00+8з588443 0.4 1016801
15:00+9з587389 0.8 10171222
18:00+7зсз5985100 0.3 1019661
21:00+7з489189 0.4 1020524
6 октября, чт
чт600:00+7з499288 0.1 1020499
03:00+5з4998100 0.1 1021295
06:00+7зюз379892 0.1 1021317
09:00+8зюз479397 0.1 1021291
12:00+11зюз568158 0.0 1021625
15:00+12зюз4681100 0.0 1020719
18:00+10юз489217 0.0 1020332
21:00+9юз410950 0.0 1020224
7 октября, пт
пт700:00+8зюз4119481 0.0 1020241
03:00+8з4109698 0.0 1020237
06:00+8зсз5129761 0.0 1021353
09:00+10сз61086100 0.0 1022665
12:00+13сз69660 0.0 1024844
15:00+14сз67630 0.0 10241037
18:00+10ссз47850 0.0 1026215
21:00+7зсз36890 0.0 1027140
8 октября, сб
сб800:00+7з33915 0.0 102744
03:00+6з23940 0.0 102741
06:00+6зюз33950 0.0 102752
09:00+9юз35875 0.0 1027204
12:00+13юз34695 0.0 1026615
15:00+14ююз4560100 0.0 1024829
18:00+11ююз357772 0.0 102379
21:00+9ююз378164 0.0 1023141
9 октября, вс
вс900:00+8ююз41085100 0.0 1022177
03:00+7ююз41086100 0.0 1021191
06:00+7ююз3986100 0.0 1020170
09:00+9ююз41078100 0.0 1019295
12:00+13юз5866100 0.0 1018579
15:00+14юз4668100 0.0 1017891
18:00+11зсз5879100 0.0 1018361
21:00+9зсз3791100 1.1 1020323